• In Hungary
  • List of Countries
  • For 7 days
  • Water Temperature
  • Satellite Maps
  • Weather Map
  • News
  • Weather Widgets
  • user-avatar
    Login

    Hourly Weather Borovskoe

    Today, 26 September, Wednesday

    Time Temperature Precipitation Wind Pressure Humidity
    00:00 +3°C° 0 mm 4 mps 748 mmHg 76%
    01:00 +3°C° 0 mm 4 mps 748 mmHg 78%
    02:00 +2°C° 0 mm 3 mps 749 mmHg 80%
    03:00 +2°C° 0 mm 3 mps 749 mmHg 81%
    04:00 +1°C° 0 mm 3 mps 749 mmHg 82%
    05:00 +1°C° 0 mm 3 mps 750 mmHg 83%
    06:00 +2°C° 0 mm 3 mps 750 mmHg 81%
    07:00 +3°C° 0 mm 4 mps 750 mmHg 79%
    08:00 +4°C° 0 mm 4 mps 750 mmHg 78%
    09:00 +6°C° 0 mm 4 mps 750 mmHg 75%
    10:00 +7°C° 0 mm 4 mps 750 mmHg 72%
    11:00 +9°C° 0 mm 5 mps 750 mmHg 69%
    12:00 +9°C° 0 mm 5 mps 749 mmHg 65%
    13:00 +10°C° 0 mm 5 mps 748 mmHg 62%
    14:00 +10°C° 0 mm 5 mps 748 mmHg 58%
    15:00 +10°C° 0 mm 5 mps 747 mmHg 60%
    16:00 +9°C° 0 mm 5 mps 746 mmHg 63%
    17:00 +8°C° 0 mm 5 mps 745 mmHg 65%
    18:00 +8°C° 0.8 mm 6 mps 743 mmHg 71%
    19:00 +6°C° 0.8 mm 7 mps 742 mmHg 77%
    20:00 +5°C° 0.8 mm 8 mps 741 mmHg 83%
    21:00 +5°C° 1.7 mm 8 mps 739 mmHg 84%
    22:00 +5°C° 1.7 mm 8 mps 737 mmHg 85%
    23:00 +5°C° 1.7 mm 8 mps 736 mmHg 87%

    Tomorrow, 27 September, Thursday

    Time Temperature Precipitation Wind Pressure Humidity
    00:00 +5°C° 1.4 mm 8 mps 735 mmHg 88%
    01:00 +6°C° 1.4 mm 7 mps 734 mmHg 89%
    02:00 +6°C° 1.4 mm 7 mps 733 mmHg 90%
    03:00 +7°C° 0.5 mm 6 mps 733 mmHg 88%
    04:00 +6°C° 0.5 mm 5 mps 733 mmHg 86%
    05:00 +6°C° 0.5 mm 4 mps 733 mmHg 85%
    06:00 +6°C° 0 mm 5 mps 733 mmHg 83%
    07:00 +6°C° 0 mm 5 mps 734 mmHg 81%
    08:00 +5°C° 0 mm 6 mps 734 mmHg 79%
    09:00 +7°C° 0.2 mm 6 mps 734 mmHg 74%
    10:00 +8°C° 0.2 mm 7 mps 734 mmHg 70%
    11:00 +8°C° 0.2 mm 7 mps 735 mmHg 65%
    12:00 +8°C° 0.1 mm 7 mps 735 mmHg 64%
    13:00 +8°C° 0.1 mm 7 mps 735 mmHg 62%
    14:00 +8°C° 0.1 mm 7 mps 735 mmHg 61%
    15:00 +8°C° 0.1 mm 7 mps 736 mmHg 63%
    16:00 +7°C° 0.1 mm 6 mps 736 mmHg 64%
    17:00 +7°C° 0.1 mm 5 mps 737 mmHg 66%
    18:00 +6°C° 0 mm 5 mps 737 mmHg 68%
    19:00 +5°C° 0 mm 5 mps 737 mmHg 69%
    20:00 +5°C° 0 mm 4 mps 737 mmHg 70%
    21:00 +5°C° 0 mm 4 mps 738 mmHg 71%
    22:00 +4°C° 0 mm 4 mps 738 mmHg 72%
    23:00 +4°C° 0 mm 4 mps 738 mmHg 72%

    Day after tomorrow, 28 September, Friday

    Time Temperature Precipitation Wind Pressure Humidity
    00:00 +4°C° 0 mm 4 mps 738 mmHg 73%
    01:00 +4°C° 0 mm 4 mps 738 mmHg 75%
    02:00 +4°C° 0 mm 4 mps 738 mmHg 76%
    03:00 +4°C° 0.4 mm 3 mps 737 mmHg 80%
    04:00 +4°C° 0.4 mm 3 mps 736 mmHg 84%
    05:00 +5°C° 0.4 mm 2 mps 735 mmHg 89%
    06:00 +5°C° 0.8 mm 2 mps 735 mmHg 90%
    07:00 +6°C° 0.8 mm 1 mps 734 mmHg 91%
    08:00 +6°C° 0.8 mm 1 mps 734 mmHg 93%
    09:00 +5°C° 0.4 mm 2 mps 734 mmHg 89%
    10:00 +6°C° 0.4 mm 2 mps 734 mmHg 85%
    11:00 +5°C° 0.4 mm 3 mps 735 mmHg 81%
    12:00 +5°C° 0.1 mm 4 mps 736 mmHg 77%
    13:00 +6°C° 0.1 mm 4 mps 736 mmHg 73%
    14:00 +6°C° 0.1 mm 5 mps 737 mmHg 68%
    15:00 +6°C° 0.1 mm 4 mps 738 mmHg 71%
    16:00 +5°C° 0.1 mm 4 mps 739 mmHg 73%
    17:00 +4°C° 0.1 mm 3 mps 739 mmHg 76%
    18:00 +3°C° 0 mm 3 mps 740 mmHg 77%
    19:00 +3°C° 0 mm 3 mps 741 mmHg 79%
    20:00 +2°C° 0 mm 3 mps 741 mmHg 80%
    21:00 +2°C° 0 mm 3 mps 742 mmHg 80%
    22:00 +1°C° 0 mm 3 mps 743 mmHg 79%
    23:00 +1°C° 0 mm 3 mps 743 mmHg 78%

    29 September, Saturday

    Time Temperature Precipitation Wind Pressure Humidity
    00:00 -1°C° 0 mm 4 mps 744 mmHg 77%
    01:00 -1°C° 0 mm 4 mps 744 mmHg 77%
    02:00 -1°C° 0 mm 4 mps 745 mmHg 77%
    03:00 -1°C° 0 mm 4 mps 746 mmHg 77%
    04:00 -1°C° 0 mm 4 mps 746 mmHg 78%
    05:00 -1°C° 0 mm 4 mps 747 mmHg 78%
    06:00 -1°C° 0 mm 4 mps 747 mmHg 75%
    07:00 0°C° 0 mm 4 mps 748 mmHg 72%
    08:00 +1°C° 0 mm 4 mps 749 mmHg 68%
    09:00 +3°C° 0 mm 4 mps 749 mmHg 66%
    10:00 +3°C° 0 mm 4 mps 750 mmHg 63%
    11:00 +4°C° 0 mm 4 mps 751 mmHg 60%
    12:00 +4°C° 0.1 mm 4 mps 751 mmHg 59%
    13:00 +5°C° 0.1 mm 4 mps 751 mmHg 58%
    14:00 +5°C° 0.1 mm 4 mps 752 mmHg 57%
    15:00 +4°C° 0.1 mm 4 mps 752 mmHg 60%
    16:00 +3°C° 0.1 mm 3 mps 752 mmHg 63%
    17:00 +4°C° 0.1 mm 2 mps 753 mmHg 66%
    18:00 +3°C° 0 mm 2 mps 753 mmHg 69%
    19:00 +2°C° 0 mm 2 mps 753 mmHg 73%
    20:00 +1°C° 0 mm 2 mps 754 mmHg 76%
    21:00 +1°C° 0 mm 2 mps 754 mmHg 75%
    22:00 +1°C° 0 mm 2 mps 754 mmHg 75%
    23:00 +1°C° 0 mm 2 mps 754 mmHg 74%

    30 September, Sunday

    Time Temperature Precipitation Wind Pressure Humidity
    00:00 0°C° 0 mm 3 mps 754 mmHg 75%
    01:00 0°C° 0 mm 3 mps 754 mmHg 77%
    02:00 0°C° 0 mm 3 mps 754 mmHg 78%
    03:00 0°C° 0 mm 3 mps 754 mmHg 80%
    04:00 0°C° 0 mm 3 mps 754 mmHg 81%
    05:00 0°C° 0 mm 3 mps 754 mmHg 82%
    06:00 0°C° 0 mm 4 mps 754 mmHg 79%
    07:00 +1°C° 0 mm 4 mps 753 mmHg 76%
    08:00 +2°C° 0 mm 5 mps 753 mmHg 73%
    09:00 +5°C° 0 mm 5 mps 753 mmHg 69%
    10:00 +5°C° 0 mm 6 mps 753 mmHg 64%
    11:00 +7°C° 0 mm 6 mps 753 mmHg 60%
    12:00 +8°C° 0 mm 6 mps 752 mmHg 59%
    13:00 +8°C° 0 mm 6 mps 752 mmHg 57%
    14:00 +8°C° 0 mm 6 mps 751 mmHg 56%
    15:00 +8°C° 0 mm 6 mps 751 mmHg 59%
    16:00 +7°C° 0 mm 5 mps 751 mmHg 62%
    17:00 +6°C° 0 mm 4 mps 751 mmHg 65%
    18:00 +6°C° 0 mm 4 mps 750 mmHg 65%
    19:00 +6°C° 0 mm 5 mps 750 mmHg 64%
    20:00 +6°C° 0 mm 5 mps 750 mmHg 63%
    21:00 +6°C° 0 mm 5 mps 750 mmHg 64%
    22:00 +5°C° 0 mm 5 mps 750 mmHg 65%
    23:00 +5°C° 0 mm 5 mps 749 mmHg 66%

    1 October, Monday

    Time Temperature Precipitation Wind Pressure Humidity
    00:00 +5°C° 0 mm 4 mps 749 mmHg 68%
    01:00 +5°C° 0 mm 4 mps 749 mmHg 70%
    02:00 +5°C° 0 mm 4 mps 749 mmHg 73%
    03:00 +5°C° 0 mm 4 mps 749 mmHg 75%
    04:00 +4°C° 0 mm 4 mps 749 mmHg 77%
    05:00 +4°C° 0 mm 4 mps 748 mmHg 80%
    06:00 +5°C° 0 mm 4 mps 749 mmHg 79%
    07:00 +5°C° 0 mm 4 mps 749 mmHg 78%
    08:00 +6°C° 0 mm 4 mps 749 mmHg 77%
    09:00 +7°C° 0 mm 4 mps 749 mmHg 74%
    10:00 +8°C° 0 mm 4 mps 749 mmHg 71%
    11:00 +10°C° 0 mm 4 mps 749 mmHg 68%
    12:00 +10°C° 0 mm 4 mps 749 mmHg 68%
    13:00 +11°C° 0 mm 4 mps 749 mmHg 67%
    14:00 +11°C° 0 mm 4 mps 749 mmHg 66%
    15:00 +11°C° 0 mm 3 mps 749 mmHg 70%
    16:00 +10°C° 0 mm 3 mps 749 mmHg 74%
    17:00 +9°C° 0 mm 2 mps 749 mmHg 77%
    18:00 +9°C° 0 mm 2 mps 749 mmHg 79%
    19:00 +8°C° 0 mm 2 mps 749 mmHg 80%
    20:00 +8°C° 0 mm 3 mps 749 mmHg 82%
    21:00 +8°C° 0 mm 3 mps 749 mmHg 82%
    22:00 +7°C° 0 mm 2 mps 749 mmHg 82%
    23:00 +7°C° 0 mm 2 mps 749 mmHg 81%
    Show more